Terug naar catalogus

SL-8 DEB *

ActiefLEO
NORAD 13498·DEBRIS·🇷🇺 Russia

Gelanceerd May 7, 1981 vanaf Plesetsk Cosmodrome

Loading…

Volgende Passages (komende 24 uur)

TLE

VersSource: Space-Track

Epoch: Sep 14, 2026, 02:33 UTC

1 13498U 81041C   26257.10688677  .00001619  00000-0  25980-3 0  9998
2 13498  74.0128 125.2974 0009366 200.5888 313.5927 14.72536879414151

Volg SL-8 DEB * in realtime met AllMySat

Download on the App Store